This is the latest recevied weather packets stored in our database for station/object K5OBH. If no packets are shown the sender has not sent any weather packets the latest 10 day(s).
| Time | Temp. | Humidity | Pressure | Rain* | Wind** | Luminosity | Snow |
|---|---|---|---|---|---|---|---|
| 1777297531 | 23.33° C | 87% | 1004.4 hPa | 0 mm | - | 177 W/m² | - |
| 1777297227 | 23.33° C | 88% | 1004.4 hPa | 0 mm | - | 165 W/m² | - |
| 1777296925 | 22.78° C | 89% | 1004.2 hPa | 0 mm | - | 155 W/m² | - |
| 1777296622 | 22.78° C | 90% | 1004.3 hPa | 0 mm | - | 143 W/m² | - |
| 1777296291 | 22.78° C | 91% | 1004.1 hPa | 0 mm | - | 130 W/m² | - |
| 1777295987 | 22.22° C | 92% | 1004.2 hPa | 0 mm | - | 122 W/m² | - |
| 1777295685 | 22.22° C | 93% | 1004 hPa | 0 mm | - | 113 W/m² | - |
| 1777295383 | 22.22° C | 94% | 1003.9 hPa | 0 mm | - | 102 W/m² | - |
| 1777295080 | 21.67° C | 94% | 1003.8 hPa | 0 mm | - | 89 W/m² | - |
| 1777294777 | 21.67° C | 95% | 1004 hPa | 0 mm | - | 83 W/m² | - |
| 1777294472 | 21.67° C | 95% | 1003.9 hPa | 0 mm | - | 75 W/m² | - |
| 1777294169 | 21.67° C | 96% | 1003.9 hPa | 0 mm | - | 65 W/m² | - |
| 1777293866 | 21.67° C | 96% | 1003.6 hPa | 0 mm | - | 58 W/m² | - |
| 1777293561 | 21.67° C | 96% | 1003.2 hPa | 0 mm | - | 49 W/m² | - |
| 1777293257 | 21.67° C | 96% | 1003.1 hPa | 0 mm | - | 43 W/m² | - |
| 1777292956 | 21.67° C | 96% | 1003.3 hPa | 0 mm | - | 37 W/m² | - |
| 1777292652 | 21.11° C | 96% | 1003.1 hPa | 0 mm | - | 29 W/m² | - |
| 1777292348 | 21.11° C | 96% | 1003.2 hPa | 0 mm | - | 25 W/m² | - |
| 1777292044 | 21.11° C | 96% | 1003.1 hPa | 0 mm | - | 22 W/m² | - |
| 1777291741 | 21.67° C | 96% | 1003.1 hPa | 0 mm | - | 19 W/m² | - |
| 1777291438 | 21.67° C | 97% | 1002.8 hPa | 0 mm | - | 15 W/m² | - |
| 1777291135 | 21.67° C | 96% | 1002.9 hPa | 0 mm | - | 11 W/m² | - |
| 1777290832 | 21.67° C | 96% | 1002.9 hPa | 0 mm | - | 7 W/m² | - |
| 1777290528 | 21.67° C | 96% | 1002.9 hPa | 0 mm | - | 4 W/m² | - |
| 1777290224 | 21.67° C | 96% | 1002.3 hPa | 0 mm | - | 3 W/m² | - |
* Rain latest hour (hover to see other rain measurements)
** Current wind speed in m/s (hover to see current wind gust speed)